Wind_Speed
33 33 33 32 32 32 32 31 30 29 29 29 29 30 31 31 33 34 34 32 30 29 27 24 24 25 27 29 31 31 30 30 31 32 33 35 35 34 33 31 30 29 30 33 33 32 33 32 31 31 29 27 27 27 27 28 27 26 25 24 24 23 21 15 9 9 13 18 21 22 21 22 23 23 25 28 30 31 32 34 34 34 35 35 34
33 33 33 33 32 33 33 33 32 30 30 30 29 30 30 30 31 33 34 33 31 29 28 25 24 24 27 29 31 31 31 31 31 32 33 34 33 33 32 30 29 29 30 33 34 32 32 32 31 30 28 28 28 27 28 28 28 28 27 26 26 25 23 20 14 10 10 14 20 22 20 20 22 24 26 29 30 31 33 34 34 34 34 33 31
35 34 33 33 33 34 34 33 32 31 31 30 30 30 31 31 31 31 33 34 32 30 28 27 25 25 27 29 31 31 31 31 32 33 34 34 34 33 33 32 31 31 32 34 34 33 32 31 31 29 28 28 28 28 29 29 30 29 29 28 27 26 25 24 20 14 11 13 18 21 21 21 24 27 29 29 29 31 32 33 34 34 34 31 30
34 34 33 34 35 35 34 34 33 32 31 30 31 32 32 32 31 31 32 33 32 30 29 27 26 26 27 29 31 31 32 32 33 34 34 35 35 34 33 33 33 33 35 35 35 34 32 31 31 30 28 29 29 29 29 30 30 30 30 30 29 28 27 25 23 19 15 14 18 20 22 24 27 30 31 29 29 31 31 32 32 32 32 30 29
33 32 32 33 33 34 34 33 32 32 31 31 32 33 33 32 32 32 32 32 31 29 28 27 27 27 29 30 31 32 33 33 34 34 34 35 35 34 33 33 33 34 35 36 36 35 33 33 32 30 29 29 28 29 30 30 31 30 29 29 29 27 26 24 24 23 20 18 19 21 22 25 28 29 27 26 28 31 30 29 29 28 28 28 28
31 31 31 31 32 33 34 33 32 32 32 33 33 34 33 33 33 32 31 31 30 28 27 27 28 29 30 30 31 33 33 34 34 34 33 33 33 32 32 32 33 34 35 35 35 35 35 34 33 30 30 30 30 30 30 30 31 30 29 29 28 27 25 24 23 22 22 22 22 21 21 21 23 24 24 23 27 29 27 26 25 24 24 26 29
30 30 30 30 31 33 34 33 33 32 32 33 34 34 34 33 33 32 31 30 29 28 26 27 28 30 31 31 31 32 32 33 33 32 31 31 31 31 31 31 32 33 34 35 35 34 35 35 33 31 31 32 32 31 30 30 30 30 30 30 28 26 24 23 22 22 22 22 20 19 18 17 19 23 25 24 25 25 24 24 24 22 23 27 33
30 30 29 29 30 32 32 31 31 32 32 33 34 34 34 33 32 30 29 28 29 29 27 27 28 29 29 30 30 31 31 31 31 31 30 30 30 31 31 31 32 32 33 33 34 33 33 34 33 32 32 32 32 31 31 30 30 30 30 30 28 26 24 22 21 21 21 19 17 17 17 16 19 22 23 21 20 19 20 22 23 25 28 32 34
29 29 28 29 30 31 30 30 29 30 30 31 33 34 34 34 31 28 27 27 28 29 28 27 27 28 28 28 28 28 29 30 30 31 31 30 30 30 30 31 32 31 31 32 32 32 32 32 32 32 32 31 30 30 30 30 29 29 29 29 27 26 24 21 20 20 17 14 15 15 14 15 16 17 20 19 19 21 23 23 23 26 30 33 32
29 28 28 29 31 31 30 29 29 29 29 31 32 33 33 32 28 26 25 25 27 28 27 26 27 28 28 27 27 27 28 29 31 32 31 31 31 30 30 31 31 30 30 30 31 32 31 31 31 31 30 29 28 28 28 27 27 28 28 28 27 26 23 21 20 20 15 11 13 14 11 11 13 15 17 19 21 22 21 18 22 28 29 28 27
29 28 29 31 31 31 29 28 28 28 29 30 30 31 31 29 27 26 25 24 24 26 25 25 27 28 27 27 26 27 28 29 31 30 28 28 29 29 30 31 30 29 29 30 31 32 31 30 29 29 28 27 26 24 24 24 24 25 25 25 26 25 25 22 21 21 17 13 14 15 11 11 13 15 16 19 20 19 18 20 26 28 22 16 16
28 28 29 30 30 29 29 28 28 28 28 28 29 30 29 26 25 25 25 23 23 24 24 25 27 27 27 27 26 26 28 28 27 27 26 27 27 28 29 30 30 29 29 29 30 31 31 30 28 28 28 27 25 24 23 21 21 22 22 23 23 24 25 25 23 21 19 16 14 14 14 14 16 17 18 21 21 22 26 30 28 25 20 15 15
28 28 29 29 29 28 28 27 27 27 26 27 29 30 26 23 22 23 24 23 22 23 23 25 26 26 26 26 26 26 26 25 24 24 26 26 26 27 29 30 31 30 29 29 29 30 32 31 28 28 28 26 25 25 25 23 21 21 20 21 22 23 22 21 19 18 17 16 15 15 17 17 18 20 22 24 24 26 30 28 22 20 20 18 19
29 29 30 30 28 28 27 26 26 26 26 27 29 28 24 22 22 23 24 23 22 22 22 23 24 25 25 25 24 24 25 25 23 23 25 26 26 28 29 29 30 29 28 28 29 29 31 30 28 28 27 26 25 25 26 25 23 23 22 21 23 23 22 21 20 21 22 23 22 22 23 23 24 27 29 28 27 27 26 23 20 20 23 26 31
31 30 29 29 28 27 26 26 26 26 26 27 27 26 25 24 24 23 22 21 21 21 21 22 23 23 24 24 23 23 24 24 22 23 24 26 26 27 28 28 28 28 28 28 28 29 30 29 28 28 26 25 25 25 24 23 23 23 22 22 22 21 22 23 24 25 26 26 27 27 26 26 26 28 27 25 24 25 25 26 28 29 31 33 34
32 30 28 28 27 26 25 26 27 27 26 26 26 26 26 26 25 23 21 20 20 20 20 21 21 21 21 22 22 22 23 23 22 23 24 25 25 25 26 27 27 27 27 27 27 28 29 29 28 26 25 24 23 22 21 21 21 21 20 20 20 20 21 21 21 21 22 22 22 22 22 22 22 23 24 24 26 29 31 32 32 30 27 24 23
32 30 28 26 26 26 25 25 26 27 26 26 26 27 27 26 25 23 20 18 17 17 18 19 20 20 19 21 22 22 23 23 22 23 23 23 24 24 23 26 28 27 26 26 26 27 27 28 27 26 24 23 22 20 19 19 20 21 20 20 19 19 20 19 18 18 18 19 21 22 23 24 25 27 29 30 30 29 27 26 26 22 17 13 12
32 30 28 26 26 27 25 24 24 25 26 26 27 27 27 27 26 24 21 19 18 17 17 17 18 19 19 21 22 22 23 23 21 22 22 22 24 24 22 25 28 26 24 24 26 26 26 26 26 26 25 23 21 19 18 19 20 20 19 17 17 18 19 18 17 17 18 21 23 25 26 26 28 31 32 31 28 24 21 23 24 19 14 11 10
34 33 29 26 27 27 25 23 23 24 25 27 28 27 27 27 26 24 22 20 19 17 15 15 16 17 19 20 21 22 22 21 20 21 21 21 24 24 21 23 26 24 22 22 23 24 24 23 23 25 24 21 20 19 18 18 18 18 17 16 16 17 17 16 15 17 19 20 22 24 25 27 28 28 27 26 23 21 20 23 24 20 16 15 14
39 35 28 26 28 27 24 23 23 23 25 27 28 27 26 27 26 23 21 20 18 15 14 14 14 16 17 19 20 20 21 21 20 21 20 21 24 24 21 22 24 23 21 22 22 21 22 22 22 22 22 20 19 18 17 16 17 17 17 16 15 16 14 13 13 14 16 18 20 23 25 25 24 23 22 21 19 18 17 18 19 20 20 20 18
39 32 26 28 29 26 25 24 23 24 25 26 26 25 25 27 26 23 21 19 17 14 12 12 13 14 15 17 19 20 21 22 21 19 19 21 24 24 22 22 23 23 21 21 22 21 21 23 23 21 20 19 18 17 16 14 14 14 14 13 13 13 11 10 11 12 15 18 21 22 22 22 21 20 19 19 17 15 15 16 17 20 22 23 22
37 32 30 31 28 25 25 25 24 24 25 25 25 25 26 27 26 23 21 18 16 13 11 11 11 12 14 16 18 19 20 21 20 19 18 20 22 22 22 23 23 24 22 21 21 22 22 23 23 22 20 19 18 16 14 12 11 11 10 8 8 10 9 9 11 13 16 18 19 19 19 19 20 20 20 19 18 16 16 17 17 19 22 25 26
35 33 31 30 27 24 25 26 25 24 25 25 24 25 26 27 25 22 20 17 14 12 10 10 11 11 12 14 17 18 19 19 19 18 18 19 19 20 22 23 25 26 25 23 22 24 23 23 22 21 19 18 16 14 12 11 11 9 9 10 10 10 10 11 13 14 15 14 14 17 18 18 21 22 22 22 21 18 17 16 16 17 19 22 25
33 31 29 28 27 24 25 25 24 24 25 24 23 24 26 25 23 20 17 14 13 11 9 9 11 11 12 14 16 17 18 18 18 17 16 17 17 18 20 23 26 27 27 25 25 25 24 22 21 21 19 16 14 13 12 12 12 11 11 11 11 11 10 11 11 11 11 11 13 16 17 19 21 22 23 22 20 18 16 16 15 15 15 18 21
30 29 28 27 25 24 24 24 23 24 24 22 20 22 24 22 19 17 15 13 12 11 8 8 10 10 10 12 15 16 16 17 17 16 15 15 15 16 18 21 26 27 27 26 25 24 23 21 20 19 18 16 15 15 14 13 12 11 11 11 10 9 8 8 8 7 8 10 12 15 17 19 19 20 20 20 18 17 18 17 16 14 14 17 20
29 27 27 26 23 22 22 22 22 23 22 21 19 20 21 19 18 17 15 13 11 10 7 7 8 8 8 10 13 14 14 15 16 16 15 14 14 14 15 17 23 26 26 26 25 23 21 20 19 19 19 18 18 18 16 13 11 10 10 8 6 5 5 5 4 5 7 10 12 14 17 18 18 18 18 18 18 18 19 19 18 17 17 18 20
27 26 25 23 21 21 21 20 21 21 20 20 20 19 19 18 16 15 15 12 9 8 7 7 7 7 7 8 11 13 13 14 14 16 16 15 14 14 14 15 20 25 25 23 23 22 20 20 22 22 22 20 19 18 16 13 11 9 6 4 3 3 2 3 4 6 7 10 12 14 15 16 17 18 19 19 19 19 19 19 19 20 20 19 19
28 25 23 20 19 19 19 19 19 19 18 19 18 18 19 17 14 14 14 12 9 8 7 8 8 9 9 8 10 11 13 15 16 17 19 19 17 16 15 14 17 25 26 23 23 24 24 25 26 24 23 21 18 16 15 12 10 7 5 3 2 1 0 2 5 6 7 8 11 13 14 15 17 19 20 19 19 21 21 19 18 19 20 18 15
29 25 21 18 18 18 18 19 19 17 18 18 17 17 17 16 14 14 14 12 10 9 8 8 9 10 10 11 10 11 13 17 19 19 20 20 19 19 19 16 17 24 28 27 28 29 29 28 27 24 21 19 17 15 14 13 11 8 6 4 3 2 2 2 3 5 7 9 11 12 13 15 17 19 20 20 20 22 22 21 20 19 18 16 13
27 24 19 16 17 18 18 19 18 17 17 17 16 15 14 13 12 13 13 11 9 9 9 10 10 9 10 12 12 12 13 15 17 17 17 18 19 20 19 18 19 26 31 32 32 31 27 24 23 22 21 19 18 17 16 15 13 10 8 6 5 4 4 4 5 6 7 9 10 11 13 15 17 18 19 20 21 22 23 21 20 19 17 16 14
23 22 18 15 17 19 18 17 17 16 17 17 15 13 11 13 13 13 11 9 7 7 7 8 9 9 11 12 11 12 13 12 12 15 17 18 19 19 19 18 22 29 33 33 31 28 24 21 19 19 19 18 18 18 18 16 14 12 10 9 7 5 5 6 6 6 7 9 10 11 12 13 15 16 16 17 19 22 23 23 22 21 18 16 14
24 22 20 18 18 19 17 15 16 16 16 16 15 12 10 10 12 12 12 10 7 5 5 4 4 6 10 12 12 11 12 12 12 15 18 18 19 20 20 21 24 30 34 32 27 23 22 21 18 18 19 18 18 19 18 16 15 14 12 11 9 7 6 7 7 6 7 8 9 10 12 13 13 13 14 16 18 20 23 24 24 22 20 17 15
27 24 23 21 20 18 15 14 15 16 15 15 14 12 9 7 7 9 12 12 7 2 3 4 3 2 4 10 14 12 12 13 14 15 17 19 20 20 21 22 26 31 32 29 23 20 19 20 19 20 20 19 19 19 18 16 15 14 12 12 11 9 8 7 6 6 7 8 9 10 12 12 12 13 14 15 17 18 21 22 22 21 20 17 16
28 26 25 23 22 19 16 16 15 16 17 15 13 11 9 7 6 6 8 9 6 3 4 6 4 3 0 7 13 14 13 14 15 16 17 19 20 21 22 23 27 29 29 26 23 21 19 18 19 20 20 19 19 20 19 17 16 15 13 12 11 10 9 8 6 6 7 8 8 10 11 12 13 13 14 16 17 18 20 21 21 21 19 18 17
29 28 27 25 23 22 21 19 17 16 16 16 13 11 10 9 8 6 5 5 4 5 7 9 7 3 1 4 11 15 16 15 15 16 18 18 20 22 23 23 24 24 23 23 24 24 22 21 20 21 21 20 20 21 20 18 17 16 15 14 12 11 10 8 7 7 7 7 8 9 11 12 13 13 13 15 17 18 18 19 19 19 18 18 17
29 28 26 25 25 25 24 22 18 16 16 17 15 12 8 7 7 6 5 5 5 4 6 9 8 4 1 4 10 15 17 16 15 16 17 19 21 22 21 19 19 20 19 19 21 22 22 22 22 22 21 21 21 21 20 18 17 16 15 13 13 12 11 9 8 7 6 6 8 9 10 12 12 12 12 14 16 16 16 17 18 17 18 19 18
28 26 25 27 28 28 26 23 21 19 18 18 17 13 8 5 5 5 5 5 5 5 7 9 9 6 3 3 9 15 17 16 15 16 17 19 21 21 19 17 18 19 18 18 20 21 20 20 21 21 21 21 21 21 19 17 17 17 15 13 12 12 11 9 8 7 6 6 7 8 10 11 12 12 13 14 15 16 17 18 18 17 18 19 19
26 25 26 28 28 26 24 23 22 21 19 18 17 14 10 6 4 4 4 5 4 4 5 7 7 6 7 4 7 16 18 15 14 15 16 18 20 19 18 18 20 20 20 19 21 21 20 19 20 20 20 21 22 21 19 18 18 17 16 14 13 12 10 10 9 7 5 5 6 7 9 10 11 12 12 14 15 16 17 17 18 18 19 20 19
26 27 29 30 27 24 22 22 22 20 18 17 16 15 12 8 5 3 4 4 3 2 3 4 4 4 6 5 7 15 16 12 11 12 12 14 18 20 19 20 21 21 20 20 20 20 20 19 20 20 20 22 21 20 19 19 18 17 16 15 14 13 11 10 9 7 6 5 6 7 8 9 10 11 12 13 15 16 16 16 17 17 17 18 18
27 28 28 28 26 24 23 22 20 19 18 17 16 15 12 8 5 3 3 3 2 2 1 2 2 2 4 5 7 13 14 11 11 12 11 13 18 21 21 22 22 21 21 21 21 20 19 19 20 20 21 22 21 20 19 19 18 17 16 15 14 13 11 10 9 7 6 6 5 6 7 8 9 10 11 13 14 14 15 16 16 16 16 16 17
29 27 26 27 26 24 22 20 19 19 19 18 17 15 12 7 3 2 2 2 2 1 1 1 1 1 4 5 5 11 14 13 13 14 14 15 18 20 21 23 23 22 22 22 22 20 19 19 20 21 21 22 21 19 19 19 18 17 16 14 13 13 12 11 9 7 7 6 6 5 6 7 8 9 11 12 12 13 15 15 16 16 16 16 17
28 25 25 26 25 22 20 19 19 20 20 17 16 15 11 6 2 1 2 2 2 1 1 1 0 3 4 4 4 10 15 14 14 15 16 17 19 20 21 22 22 22 22 22 21 20 19 19 20 21 22 22 21 20 20 19 18 17 16 15 14 13 12 11 10 8 7 6 5 5 5 6 8 9 10 11 11 13 15 16 16 17 17 17 18
26 25 24 24 22 20 20 20 20 20 18 17 17 17 12 5 1 2 3 3 2 2 1 1 2 4 4 4 6 12 16 15 15 17 17 18 19 19 20 21 21 20 21 20 19 18 18 18 19 21 21 21 20 19 18 18 18 17 16 15 14 13 12 11 10 9 7 6 5 5 5 6 6 7 8 10 11 12 14 15 16 17 17 17 18
28 28 25 22 21 21 20 19 19 19 18 19 19 17 10 3 3 4 4 4 3 3 2 3 4 5 5 6 8 13 16 15 16 18 18 19 19 19 19 20 19 18 17 17 16 16 16 17 19 21 21 21 19 17 16 15 15 14 14 13 13 13 12 10 9 8 7 6 5 4 4 5 5 6 7 9 10 11 13 15 16 17 17 17 18
30 30 25 21 21 20 19 19 20 19 19 18 17 13 7 2 4 5 5 5 5 4 4 4 5 6 7 8 10 14 16 16 17 19 19 19 20 19 19 20 18 16 15 14 14 15 16 17 20 22 22 21 19 16 14 13 12 11 10 9 9 9 9 9 8 8 6 5 4 4 4 4 4 5 6 8 9 10 12 14 15 15 16 17 17
32 31 26 22 20 19 19 21 21 20 17 16 15 12 7 3 6 6 6 6 6 6 6 6 6 7 8 9 11 14 16 17 18 18 19 19 20 19 19 20 18 16 14 14 14 15 16 17 19 21 21 20 18 16 14 13 12 11 10 7 6 6 7 8 8 7 6 5 3 3 3 3 3 4 5 6 8 9 10 12 12 14 15 15 15
33 32 28 23 21 20 19 20 19 18 16 15 14 11 4 5 7 7 6 6 6 7 8 9 9 9 10 10 11 14 17 18 18 18 18 19 20 20 20 20 18 16 14 13 14 15 16 17 18 19 20 19 18 16 15 13 12 12 11 10 9 8 8 8 7 6 5 5 3 2 2 2 2 3 4 5 6 7 8 10 10 12 12 12 13
33 33 29 26 22 20 19 19 18 16 16 15 13 7 2 6 7 7 7 7 7 8 9 10 11 11 11 11 12 14 17 18 18 18 18 19 19 20 21 21 19 17 15 14 14 15 16 17 18 18 18 18 17 16 15 14 13 13 13 12 11 10 9 8 8 6 5 4 3 2 1 1 2 2 3 4 4 5 7 8 9 10 11 11 12
33 31 28 26 23 20 20 21 20 18 18 15 9 1 5 8 8 8 8 8 8 8 9 10 12 13 12 12 13 15 17 19 19 18 19 19 19 21 22 21 19 17 16 15 15 15 16 17 17 17 18 18 16 15 14 13 13 14 13 12 12 11 9 8 7 6 5 4 2 1 0 1 2 2 2 3 4 4 6 7 7 9 10 10 11
33 30 28 28 26 22 21 22 21 20 18 14 6 3 6 7 7 7 8 8 7 7 8 11 13 13 13 14 15 17 19 20 19 18 19 20 20 21 22 21 19 17 16 16 16 16 17 17 17 17 18 17 16 14 13 12 12 13 13 12 11 11 9 8 7 5 4 3 2 1 1 1 2 2 2 3 4 5 6 7 7 8 9 10 11
33 32 30 29 25 20 19 21 21 19 17 15 10 4 3 5 6 7 7 7 7 7 9 11 13 13 14 15 17 18 19 20 20 19 19 20 21 22 23 21 19 18 17 16 16 17 17 18 18 18 18 17 15 14 13 12 12 12 12 11 11 10 9 8 7 5 4 3 2 1 1 2 2 3 3 5 6 6 7 8 8 8 8 8 9
Wind_Direction
311 312 312 312 311 311 310 310 311 310 311 312 311 311 311 311 312 312 310 310 305 292 281 274 266 257 250 244 239 236 232 230 227 224 223 220 219 218 217 217 219 218 219 221 222 221 221 220 222 222 218 214 216 218 217 218 218 219 223 225 223 224 229 234 249 269 269 273 280 283 283 283 282 283 287 293 296 297 298 299 297 296 295 295 295
309 309 309 309 309 309 308 308 309 308 309 309 309 309 309 309 310 309 307 308 305 292 279 273 266 257 250 243 239 236 233 230 225 219 218 217 215 217 216 215 217 218 217 217 218 219 219 219 220 220 216 213 215 216 216 216 216 218 222 223 222 226 231 234 242 263 270 272 281 283 280 281 283 285 290 294 295 297 299 298 297 297 295 294 293
308 308 309 308 307 307 306 306 307 307 307 307 308 308 308 308 308 307 305 305 304 295 281 271 264 255 248 243 240 236 232 229 224 218 216 214 213 215 216 216 217 218 216 215 216 216 215 217 219 217 213 211 214 216 216 216 216 218 221 222 225 228 232 235 239 253 267 273 278 278 276 281 284 286 291 293 294 296 297 296 296 296 294 291 288
304 305 305 306 307 306 305 305 306 305 305 306 307 307 307 307 306 305 303 302 302 297 285 272 262 253 245 241 240 236 231 227 222 218 216 214 214 215 216 218 218 218 215 213 214 214 213 215 218 216 211 209 212 214 215 216 217 218 221 223 226 229 232 235 238 249 263 271 275 273 274 280 284 286 288 290 292 295 295 294 293 293 290 288 287
300 300 300 302 304 304 304 305 305 305 305 306 306 306 305 305 304 303 301 299 298 296 286 271 259 249 242 239 238 236 233 227 222 219 217 216 216 216 217 218 219 218 215 213 213 213 212 214 217 216 210 208 211 213 214 215 216 218 221 224 226 228 231 235 240 249 257 266 275 274 273 276 280 284 285 288 295 298 296 292 290 289 287 286 288
298 297 298 300 302 303 303 304 304 305 305 306 306 305 303 301 301 301 300 297 295 292 282 268 256 248 242 239 237 236 234 229 223 221 218 216 216 216 217 219 218 216 214 213 213 213 213 215 217 216 212 210 211 213 213 215 216 218 221 224 227 228 230 234 240 248 255 263 271 272 271 271 275 281 285 290 296 297 296 293 290 286 285 288 294
297 296 297 299 301 301 301 303 304 305 305 306 304 303 299 297 298 299 300 297 293 288 280 267 255 248 242 239 237 235 233 228 224 222 219 217 216 216 217 217 216 215 214 213 213 213 214 215 217 216 215 215 215 214 213 213 215 218 221 224 227 226 229 235 240 248 255 261 264 265 268 267 270 280 288 293 292 289 291 295 294 288 286 292 297
298 297 297 296 296 297 297 299 301 302 303 304 302 300 296 293 293 297 300 298 293 289 282 269 257 248 243 240 237 234 231 227 224 222 219 218 217 217 216 215 213 212 212 213 212 212 214 216 218 219 219 220 220 218 217 215 215 217 222 225 226 226 229 234 240 249 253 255 258 261 265 265 269 280 288 292 290 286 290 293 290 291 293 295 296
298 296 295 294 295 295 296 297 298 300 302 302 301 299 294 290 291 295 298 297 294 291 285 275 261 250 245 241 237 233 229 226 224 222 220 218 217 217 216 214 212 210 211 212 212 212 213 216 219 221 222 224 225 225 225 223 220 219 221 223 223 225 229 233 241 247 246 247 254 258 261 261 265 278 285 287 288 291 294 290 286 293 298 298 295
300 298 297 297 298 298 297 298 300 302 303 303 302 299 293 290 292 297 297 295 293 291 286 276 262 252 246 241 235 230 227 225 225 224 222 219 217 216 215 213 211 209 209 209 209 211 213 215 219 221 223 225 226 227 228 227 227 227 228 227 226 226 229 234 240 242 238 241 249 252 259 259 260 271 281 287 290 292 292 291 294 299 301 299 295
301 300 300 300 301 299 299 301 303 304 305 304 302 299 295 294 297 297 294 293 292 289 283 274 262 251 244 238 232 227 224 225 225 223 221 218 216 214 213 212 211 209 208 208 207 209 210 213 216 218 219 222 224 223 223 222 224 227 230 233 234 233 233 234 238 238 236 239 247 253 257 259 266 276 286 291 292 290 290 292 295 295 295 296 294
302 300 300 301 301 301 301 303 304 303 302 302 301 298 296 297 298 295 292 294 294 287 279 272 262 251 241 235 230 226 224 224 224 222 220 216 215 214 212 211 209 208 208 208 208 209 210 210 213 214 216 220 221 220 217 218 221 223 227 231 234 237 239 238 238 236 234 238 246 253 259 268 280 284 288 292 290 289 290 288 286 281 278 282 287
305 304 304 303 303 304 304 303 302 300 300 301 300 296 295 297 298 293 290 294 294 285 276 270 261 250 239 231 227 225 225 223 221 221 221 218 213 211 211 211 209 208 209 209 209 210 210 207 208 213 217 219 220 221 220 219 221 224 228 233 237 241 243 245 246 246 250 259 263 267 272 279 285 286 289 291 287 285 287 284 280 278 278 284 288
309 307 307 306 306 307 306 304 302 300 302 303 300 296 297 299 297 292 287 288 288 283 277 270 261 250 239 232 227 224 224 224 221 220 221 220 215 211 210 210 210 210 211 211 211 211 209 207 208 214 218 217 217 221 223 222 224 226 231 237 240 242 244 249 256 261 268 274 276 280 282 283 285 286 287 286 280 280 285 288 293 294 289 290 290
308 307 307 307 308 308 308 306 304 303 304 303 300 299 299 299 298 294 286 283 285 285 279 272 264 254 242 233 227 224 224 223 219 217 218 219 219 216 210 206 207 210 212 213 212 210 209 209 211 214 217 217 216 220 223 225 226 228 232 237 240 244 247 252 259 264 270 274 275 279 283 284 285 285 284 285 285 287 292 294 296 296 293 291 289
306 305 306 308 308 308 309 307 305 305 305 303 301 301 300 299 300 297 285 278 281 284 281 275 267 257 243 232 226 224 224 221 215 214 216 216 219 219 210 202 204 208 210 211 211 209 209 210 212 214 217 218 218 218 220 224 224 225 230 235 240 247 252 258 264 268 271 273 274 277 282 284 285 284 287 294 295 295 296 294 291 290 290 289 286
304 302 303 306 308 307 307 307 306 307 306 303 302 301 299 298 301 299 286 275 275 279 279 276 268 257 243 229 223 221 222 222 215 213 215 214 216 219 209 198 201 205 205 208 209 207 208 209 211 214 217 220 220 213 210 216 221 222 226 232 240 249 258 265 268 266 266 269 271 274 277 279 280 283 287 292 292 293 294 289 286 287 285 282 284
303 300 299 304 308 307 307 307 307 306 303 302 301 300 299 300 301 301 291 279 277 279 279 275 263 250 238 227 222 221 222 222 215 212 214 214 214 217 207 196 198 201 201 203 206 206 207 209 212 215 218 220 218 208 203 209 212 214 219 228 238 247 256 264 266 265 266 268 269 272 276 280 284 286 289 291 291 289 282 275 279 285 281 274 279
304 298 295 303 308 306 305 305 303 302 300 299 299 299 300 301 300 299 293 284 281 280 277 271 256 242 234 228 223 221 222 222 216 212 213 214 214 215 206 192 190 193 193 194 198 202 204 204 208 216 220 219 213 205 203 207 209 213 220 225 232 242 253 262 266 268 270 270 274 279 283 288 291 292 294 295 292 286 273 269 275 277 272 270 275
306 297 297 307 310 305 303 301 298 298 297 296 297 298 300 301 301 300 296 290 285 279 272 266 253 239 231 225 220 220 221 221 219 214 212 215 215 212 203 190 184 184 183 184 187 193 198 197 200 209 216 217 210 203 205 210 211 215 220 223 233 247 257 261 261 265 272 278 285 290 293 298 302 303 304 303 299 293 281 273 271 268 266 270 271
311 306 307 311 308 304 302 299 295 296 297 296 298 300 300 301 301 301 298 293 287 282 275 265 250 235 227 221 217 218 218 219 220 215 212 217 217 210 199 189 184 180 177 180 184 185 188 193 196 200 205 207 204 202 206 207 202 207 220 230 241 248 248 249 254 267 282 289 294 299 304 311 313 314 315 313 311 307 295 283 275 267 263 265 267
314 313 311 309 305 303 302 299 297 299 301 301 302 302 302 303 302 301 300 296 290 285 275 260 243 228 221 216 216 217 217 219 222 218 213 216 218 210 198 190 187 182 176 177 182 184 188 195 195 195 197 198 199 199 197 190 192 209 220 213 211 220 232 251 268 281 291 296 302 310 317 323 325 327 329 327 325 319 305 292 283 274 267 264 263
310 310 308 305 303 302 300 299 300 302 303 304 304 303 303 302 300 300 300 296 291 284 268 245 226 214 210 210 214 217 217 218 220 218 214 215 216 212 200 189 187 186 183 182 185 187 193 198 196 194 194 194 194 189 181 182 194 199 184 173 189 218 247 269 280 289 297 305 314 321 329 336 336 334 335 332 329 324 314 304 295 287 281 275 271
307 306 304 302 300 297 296 297 300 302 303 303 303 302 299 298 297 299 300 295 286 277 260 231 210 201 201 203 208 215 216 215 215 214 213 213 213 211 202 189 185 188 190 191 192 192 195 199 198 195 193 191 186 176 172 179 180 172 172 191 221 244 261 276 285 293 305 320 328 331 339 346 341 337 336 334 333 331 324 318 313 306 298 291 286
305 303 301 298 295 292 293 296 300 301 302 301 297 293 292 293 298 304 305 297 285 275 256 225 208 201 198 200 205 211 212 211 212 210 209 211 210 210 206 192 184 187 193 195 196 198 201 199 194 187 182 178 170 162 161 164 165 175 199 222 242 257 267 280 291 305 325 338 340 338 344 350 346 342 341 340 341 341 335 330 329 329 324 310 299
304 301 299 296 293 291 293 296 298 301 303 302 298 292 290 294 301 306 305 296 283 272 252 223 208 202 201 200 203 207 207 207 211 210 205 205 206 206 208 198 186 186 194 198 197 197 198 192 182 172 166 165 165 163 160 160 169 193 216 229 244 262 274 285 306 336 347 352 352 348 350 352 350 349 351 350 351 351 347 343 339 339 339 327 315
311 303 298 296 296 293 292 294 296 298 301 304 303 300 299 301 302 302 300 293 278 262 239 215 201 200 203 198 194 197 199 201 207 208 203 200 201 202 206 204 188 181 186 190 185 181 178 169 161 158 156 158 163 166 168 173 184 199 206 213 236 257 283 317 357 12 4 0 1 358 357 356 354 356 359 356 357 358 358 355 347 343 343 337 323
317 307 301 298 296 293 291 292 294 297 301 303 302 301 304 307 308 305 302 295 281 264 239 216 210 210 204 192 180 180 186 194 204 209 203 198 197 196 199 204 188 175 173 171 164 159 154 149 148 151 154 157 161 166 171 178 185 188 184 188 210 211 73 12 19 23 13 7 7 4 2 1 1 2 1 358 0 5 7 6 357 349 347 344 330
320 312 307 300 297 296 294 295 297 300 304 303 301 303 307 309 311 313 312 307 292 277 258 239 234 228 214 201 185 169 178 198 212 215 207 198 195 192 194 198 184 169 167 164 154 146 145 145 147 151 154 155 157 161 168 171 169 168 172 176 177 160 131 74 41 34 23 17 16 11 7 8 8 6 2 359 4 11 13 11 5 357 350 343 330
319 315 310 303 302 302 298 299 304 307 307 305 303 308 313 314 316 321 324 319 301 280 264 254 255 247 226 217 210 200 204 216 219 213 203 194 192 191 192 192 179 167 165 164 155 147 145 146 149 154 157 157 158 161 166 168 165 163 167 169 168 158 131 92 66 53 38 28 25 20 16 15 13 9 4 1 5 13 17 15 10 4 354 341 328
316 313 313 307 307 306 301 303 311 313 311 308 306 311 320 323 324 331 335 329 314 298 282 265 257 248 236 232 226 217 219 224 213 200 193 188 188 187 183 179 173 166 164 161 154 148 149 150 151 158 161 162 166 169 170 171 168 166 166 165 165 159 130 93 73 60 46 37 34 30 27 26 20 13 7 5 7 12 16 15 13 8 359 345 331
318 314 317 314 311 309 308 313 319 318 313 311 311 317 328 329 327 332 339 337 326 318 326 320 283 251 233 229 226 212 204 203 198 192 188 185 185 182 176 170 165 163 165 163 153 149 154 155 155 162 165 166 173 176 175 174 171 170 170 165 159 152 130 99 81 67 52 45 41 36 34 33 27 18 14 15 16 16 15 13 11 6 358 350 341
325 322 326 326 320 314 316 326 327 320 315 312 312 320 331 331 321 321 329 338 345 4 31 21 355 320 221 215 218 213 197 190 190 189 185 184 183 178 174 170 164 162 165 162 151 150 159 159 160 167 171 173 177 178 177 177 174 172 173 168 155 142 125 106 90 74 60 53 47 43 41 37 31 25 24 24 25 23 19 14 9 5 360 353 346
331 330 332 333 327 322 325 331 328 321 318 313 312 321 326 323 319 310 315 334 352 359 4 10 5 358 103 194 202 201 190 183 185 185 183 182 181 175 172 170 164 163 168 165 155 154 161 161 163 170 174 175 177 178 177 176 175 172 170 165 152 135 124 118 105 85 71 62 56 52 47 43 36 29 27 28 31 29 24 19 12 6 0 353 344
336 333 333 335 333 328 325 325 326 324 318 312 312 321 322 319 325 320 305 321 335 313 323 346 360 355 315 186 185 186 183 179 180 182 180 179 178 174 169 165 160 159 164 167 163 162 165 165 167 172 175 177 179 179 177 175 174 173 169 162 152 140 135 130 115 96 81 70 64 57 51 48 43 34 29 31 33 31 26 20 16 8 360 352 346
335 331 331 334 335 327 318 317 322 322 316 312 312 316 316 318 326 326 317 321 325 312 320 343 358 2 281 183 176 178 178 176 176 179 178 178 178 174 168 163 158 154 156 162 164 165 169 171 172 174 177 179 179 179 178 176 174 173 169 161 151 145 142 134 117 103 92 78 68 60 53 50 45 38 34 35 36 35 30 23 20 15 5 357 351
332 330 329 331 330 325 317 315 317 319 318 317 316 315 317 319 320 326 330 327 327 332 340 349 1 18 44 134 167 173 174 172 172 173 175 177 178 174 167 161 156 152 153 160 165 166 168 173 175 177 179 179 178 178 177 175 172 169 166 159 152 148 144 134 121 112 103 88 73 61 54 52 46 39 37 36 35 35 32 28 24 19 13 7 2
330 328 327 327 326 323 319 317 316 318 321 322 320 320 322 322 325 333 332 325 326 340 345 346 355 14 25 45 153 166 168 167 165 169 175 178 172 165 159 155 153 153 157 164 169 170 170 173 177 180 180 179 177 176 175 173 172 169 164 159 155 153 147 137 130 126 117 98 80 65 55 51 47 42 38 37 37 34 31 30 27 21 16 13 8
328 325 326 327 326 323 321 319 315 315 319 322 323 323 320 318 326 330 314 308 315 324 332 339 348 9 24 44 135 155 156 153 154 160 166 164 157 154 154 151 150 154 161 166 170 173 174 174 177 180 181 179 176 175 175 175 174 170 166 164 162 157 149 142 140 139 130 111 89 73 61 53 48 43 40 40 40 36 34 34 30 25 19 13 8
324 322 323 327 326 323 320 317 313 313 317 319 320 322 318 312 311 305 285 290 304 294 297 335 343 28 59 71 125 148 146 140 145 149 144 139 143 150 156 154 153 159 166 169 171 175 176 176 178 180 180 178 175 175 177 178 174 170 171 172 167 157 147 144 148 147 136 120 99 81 70 58 48 45 44 43 41 38 37 37 34 31 28 20 12
321 319 320 323 322 319 317 315 310 310 313 312 314 320 321 314 305 286 262 269 277 250 243 308 334 105 94 80 118 150 149 142 143 145 141 139 144 150 156 159 163 169 172 173 175 176 176 178 180 180 178 177 176 177 178 178 175 172 173 173 167 158 151 152 156 153 140 125 108 91 80 65 53 48 45 43 42 41 41 41 38 34 32 28 23
320 319 318 318 316 314 313 311 307 306 306 307 313 321 323 318 302 253 246 249 236 205 207 242 136 133 114 80 118 155 154 147 143 143 142 146 151 155 159 165 171 175 178 179 179 178 177 178 179 179 177 176 177 178 179 179 177 175 173 172 167 160 157 158 159 154 146 135 118 100 85 69 56 50 46 42 40 40 40 41 40 36 33 31 29
317 317 315 311 309 308 306 303 302 302 301 304 311 316 319 316 249 209 224 224 206 183 176 171 158 149 124 93 124 150 152 146 144 144 143 147 153 157 161 166 171 175 178 180 181 180 178 176 176 177 177 177 178 181 181 178 177 176 175 172 168 163 162 164 163 159 154 143 126 106 88 74 61 53 48 43 38 36 37 38 38 37 35 32 31
320 320 316 308 306 305 301 297 297 297 296 300 306 308 308 291 187 189 200 200 191 175 162 161 157 147 128 111 128 144 147 145 145 146 146 149 154 158 161 165 168 170 172 175 178 179 178 174 172 175 177 178 180 182 182 178 177 178 176 172 168 168 170 170 166 161 156 147 133 114 96 82 66 53 48 43 35 32 32 33 32 33 34 33 32
325 323 317 309 307 305 300 299 299 296 294 300 306 308 303 249 183 184 190 187 177 166 154 145 141 139 131 122 130 141 145 145 147 149 150 153 157 159 161 163 162 162 164 168 173 175 175 173 173 174 176 178 179 179 180 179 177 178 178 174 169 168 169 168 163 158 154 150 137 119 106 90 66 51 46 41 34 30 28 27 26 26 27 30 32
328 325 318 311 307 304 302 302 301 298 296 300 304 304 296 216 178 182 187 180 168 160 150 139 135 137 133 126 132 143 146 147 148 150 152 155 158 160 161 159 156 155 157 159 164 167 170 173 174 174 174 174 174 174 175 174 172 173 174 170 164 162 163 165 165 160 154 151 138 117 108 92 64 52 44 35 31 27 23 21 21 21 21 23 27
330 327 323 316 310 304 301 301 301 301 302 303 303 301 278 187 175 179 177 168 159 157 151 142 136 138 136 132 135 143 148 149 150 150 152 155 157 158 160 157 152 149 150 153 158 163 167 171 173 174 173 171 169 169 170 168 166 167 168 165 164 168 169 167 166 161 155 151 143 120 107 77 51 48 41 33 30 23 18 16 16 14 14 15 16
332 330 328 325 318 308 304 304 302 301 302 303 304 301 207 170 170 168 163 159 155 155 152 142 136 136 138 136 137 142 148 150 149 149 152 155 155 155 157 155 150 146 145 148 154 161 164 167 170 172 172 169 167 166 167 166 165 167 170 170 169 170 170 169 167 164 160 160 153 137 113 42 29 35 34 30 27 20 15 14 11 7 6 6 6
334 333 332 329 323 315 314 316 314 311 311 312 312 297 151 161 166 163 161 161 158 155 149 140 135 135 136 134 134 140 146 149 148 148 151 153 153 154 155 154 150 145 143 144 149 156 160 162 165 167 168 168 167 166 166 167 168 170 173 172 169 166 168 171 169 165 163 165 158 138 106 34 29 32 28 22 18 13 9 6 2 360 358 355 355
338 338 336 333 328 325 327 330 329 328 334 343 0 97 142 155 160 157 157 157 151 144 139 135 133 133 133 135 139 143 146 147 148 150 151 152 153 154 155 153 149 144 141 141 146 152 155 157 159 162 164 166 167 166 165 164 166 168 170 170 166 164 165 168 169 166 166 166 156 110 80 52 37 33 18 8 3 358 355 352 348 348 348 345 346
340 341 340 337 335 334 337 337 335 337 350 4 13 32 124 149 154 157 159 155 141 129 128 130 130 129 130 136 142 146 147 148 149 150 152 153 154 155 156 154 149 143 139 140 145 150 153 155 156 159 163 165 165 163 161 160 160 164 166 165 162 161 161 162 165 165 162 156 140 105 90 63 38 22 8 360 354 349 344 340 335 334 336 336 336
Height
718 715 712 709 706 704 701 699 697 694 692 690 687 685 683 681 679 677 674 672 670 669 667 665 664 663 664 665 666 667 667 668 670 674 676 678 681 684 686 689 691 693 694 696 699 702 704 707 708 709 710 712 714 716 718 719 721 722 723 724 725 726 726 727 724 721 721 722 722 721 721 720 718 717 716 715 714 714 713 711 709 707 704 700 697
715 712 709 705 703 700 698 696 693 691 688 686 684 681 679 677 675 674 671 668 667 665 663 661 660 659 659 660 662 663 663 664 666 669 672 674 677 680 682 684 686 688 690 691 695 698 700 703 705 706 707 709 710 712 713 715 717 718 719 720 721 722 722 723 722 720 718 718 719 718 717 717 715 713 713 712 710 709 707 705 704 702 699 696 693
711 709 706 702 700 697 694 692 690 688 685 682 680 677 675 673 671 669 667 664 663 661 659 657 656 655 655 656 658 659 660 661 662 664 667 669 672 674 676 678 681 683 685 687 690 694 696 699 701 702 704 705 707 708 709 711 712 713 714 715 716 717 718 719 719 718 715 714 716 715 714 713 712 710 709 708 707 705 703 701 699 697 694 692 689
709 706 703 700 697 694 691 688 686 683 681 678 675 673 671 669 667 665 662 660 658 656 655 653 652 651 651 652 653 655 656 658 659 660 662 664 666 669 671 673 675 677 679 682 685 688 692 695 697 699 700 701 703 704 705 707 708 709 709 711 712 712 714 715 715 715 713 711 711 712 712 710 709 707 705 704 703 701 699 696 695 692 690 687 686
706 703 700 697 694 691 688 685 682 679 676 674 671 668 666 664 663 660 657 655 653 652 651 649 648 648 647 647 649 651 653 654 656 657 658 660 661 664 666 668 670 673 675 677 680 683 686 690 692 695 696 698 699 700 701 702 704 705 706 707 708 709 710 711 711 712 711 708 707 708 709 707 704 702 702 700 698 696 695 692 691 688 685 683 682
702 699 696 693 690 687 684 681 678 675 672 670 667 665 663 660 658 656 653 651 648 647 646 645 645 644 643 643 645 646 649 650 652 653 655 656 658 659 662 664 666 669 671 673 675 677 680 684 687 690 691 693 694 695 697 698 700 702 703 704 705 706 707 707 708 708 708 706 705 704 704 703 701 699 698 698 695 692 690 688 686 685 682 679 677
698 695 692 690 686 683 680 677 674 671 668 666 664 661 659 657 654 652 649 646 644 643 642 641 640 640 639 640 641 643 645 647 648 650 651 652 654 655 658 660 663 666 668 669 670 672 675 678 682 684 686 688 689 690 692 694 696 697 699 700 702 703 704 704 704 705 704 703 702 700 700 699 698 695 694 695 693 690 688 684 681 680 679 677 673
694 691 688 686 682 679 676 674 671 668 665 663 660 658 655 653 650 648 644 642 640 639 638 637 636 636 635 636 637 639 641 643 644 646 647 649 650 652 655 657 659 662 664 666 667 668 671 674 677 679 682 684 685 687 688 690 692 693 695 697 699 700 700 701 701 702 701 700 698 697 696 695 694 692 691 691 689 687 686 684 679 676 675 672 670
689 687 684 681 678 675 672 670 667 665 662 659 657 654 651 649 646 643 640 638 637 635 634 633 633 632 631 631 632 634 636 638 640 641 643 645 647 649 652 653 655 658 660 662 663 665 668 670 673 675 678 680 682 683 685 686 688 689 691 693 695 696 697 698 698 699 698 697 695 694 693 691 690 689 688 688 686 683 683 681 677 673 671 666 664
684 682 679 676 673 670 668 665 662 660 658 655 653 650 647 644 642 639 636 635 634 632 630 629 629 628 628 628 628 630 631 633 635 637 638 640 643 646 648 650 653 654 656 659 660 662 664 666 669 672 675 678 679 680 682 683 684 686 688 689 691 693 694 694 695 695 694 693 692 691 690 687 686 686 685 684 683 681 680 678 674 670 668 662 656
680 677 674 671 668 666 663 660 658 655 653 651 649 646 643 641 638 635 633 631 630 629 627 626 625 624 624 624 624 625 626 627 631 633 635 637 639 642 645 647 650 652 653 655 657 658 660 663 666 669 672 674 676 678 679 681 682 683 685 686 688 689 690 690 691 691 690 689 689 688 686 683 682 683 682 681 681 679 677 676 673 668 666 661 653
676 672 670 666 664 661 658 656 653 651 649 647 644 641 639 636 634 631 629 628 627 626 624 623 622 621 621 621 621 621 621 623 627 630 633 635 637 639 641 643 646 649 650 652 654 656 657 659 663 665 668 671 673 675 676 678 680 681 682 684 685 685 686 686 686 686 686 686 685 684 683 681 680 680 680 679 677 676 674 672 669 665 662 659 653
671 668 665 662 659 657 655 652 649 647 645 643 640 637 635 632 630 628 626 624 623 622 621 619 618 618 618 617 617 617 617 619 623 627 630 633 635 636 638 640 643 645 647 649 651 653 654 656 659 662 664 667 669 671 673 675 677 678 679 681 682 682 683 683 683 683 683 683 682 680 680 679 678 677 678 677 674 671 669 666 664 663 659 656 653
667 663 660 658 655 653 651 648 645 643 641 639 636 633 631 628 626 624 622 621 619 618 617 616 614 614 614 613 613 613 614 615 619 623 627 630 632 633 634 637 639 641 643 646 648 650 651 653 656 659 661 664 666 667 669 671 673 675 676 677 678 679 679 679 680 680 680 680 679 677 677 677 676 674 674 674 672 669 666 663 661 660 657 654 651
663 660 656 654 651 649 647 644 641 639 637 634 632 629 627 625 622 620 618 617 615 614 612 611 611 610 610 610 610 609 610 612 615 619 623 626 629 630 631 632 635 637 640 643 645 647 649 651 653 656 658 660 662 664 666 668 670 672 673 674 675 676 677 677 677 678 678 678 677 675 675 675 673 672 671 671 670 667 665 662 660 657 654 649 645
658 655 652 650 647 645 643 640 637 635 632 630 627 625 623 621 618 616 614 613 612 610 609 608 607 606 606 607 607 607 607 609 612 615 619 623 625 627 627 628 631 634 636 640 643 645 647 649 651 653 655 657 659 661 663 665 667 669 670 672 673 673 674 674 675 676 675 675 674 673 672 671 670 669 668 668 667 664 662 659 656 655 652 646 639
653 650 648 645 643 641 639 637 633 630 628 625 623 621 619 616 614 612 611 609 608 607 606 605 604 604 604 604 604 604 605 607 609 612 615 619 621 623 624 625 628 631 633 637 640 643 645 647 649 651 653 654 656 659 661 663 665 666 668 669 670 670 671 671 672 673 673 672 672 670 669 668 667 666 665 665 663 662 659 655 652 653 651 644 637
648 645 642 640 639 636 634 632 629 627 625 622 619 617 615 612 611 609 607 605 604 603 603 602 601 601 601 601 601 602 602 604 606 609 611 614 617 620 621 622 625 628 631 634 637 640 643 645 647 649 650 652 654 657 660 661 662 664 665 667 668 667 668 669 669 670 670 669 668 668 666 665 664 662 661 660 658 658 656 652 650 650 648 644 638
644 640 637 635 634 631 630 628 626 624 621 618 616 613 611 609 607 606 604 602 601 600 600 599 598 598 598 598 598 599 600 602 604 605 608 611 614 617 618 620 622 625 629 632 635 639 641 643 645 647 649 651 653 655 658 659 660 661 663 664 665 665 665 666 666 666 666 666 665 665 663 662 660 658 656 655 654 652 651 649 648 648 645 641 638
640 635 632 631 629 626 625 624 622 620 618 615 613 611 609 607 604 603 601 599 598 597 597 596 595 595 595 595 596 597 598 599 600 602 605 608 611 614 615 617 620 623 627 630 634 637 639 641 643 645 647 649 651 653 656 657 658 659 660 661 662 663 663 664 664 664 664 663 663 661 659 657 655 654 652 650 649 648 646 645 644 644 642 638 636
636 631 629 627 624 622 621 619 618 616 614 612 610 608 606 604 602 600 598 597 595 594 593 593 592 592 592 592 593 594 595 597 598 600 603 606 608 610 612 614 617 621 625 628 631 634 636 638 641 643 646 648 650 652 654 655 656 657 658 660 660 660 661 661 662 662 661 661 659 657 655 653 651 650 648 646 645 644 642 642 640 639 638 635 632
634 630 626 623 621 619 617 615 614 612 610 608 607 605 603 601 599 597 595 594 592 591 590 590 589 589 590 591 591 592 593 595 596 598 601 604 606 607 608 611 615 619 623 626 629 631 634 636 638 641 644 646 648 651 652 653 654 655 657 659 658 658 659 660 660 660 659 658 656 653 652 650 647 645 643 642 641 640 638 637 636 635 633 631 629
631 628 624 620 618 616 614 612 610 608 607 605 604 602 600 598 596 594 592 591 590 588 588 588 588 588 588 589 590 591 592 593 594 597 599 601 603 605 606 609 613 616 620 623 626 628 631 634 637 640 643 645 647 649 651 652 653 654 656 657 657 656 658 658 658 657 656 654 652 650 648 646 643 641 640 639 638 637 635 633 632 630 628 626 624
628 624 621 617 615 613 611 609 608 606 604 603 602 600 597 595 593 591 590 588 587 586 586 586 586 586 587 588 589 590 590 592 594 596 598 599 602 603 605 608 611 614 617 620 623 626 629 632 636 639 642 644 646 648 650 651 652 654 655 655 655 655 656 656 656 655 653 651 650 648 646 644 641 640 639 637 636 634 632 630 628 626 624 621 619
625 621 618 615 612 610 609 607 605 604 602 601 600 598 594 592 590 588 587 586 585 584 584 584 585 585 585 587 588 588 590 591 593 595 597 598 600 603 605 607 609 612 615 618 620 624 627 630 634 638 640 643 645 647 649 650 651 652 652 653 654 654 654 654 653 652 650 649 647 645 643 642 641 640 638 637 635 632 629 627 624 622 620 617 614
621 618 614 611 609 607 606 604 603 601 600 599 598 595 592 590 588 586 585 584 583 583 583 583 583 584 584 585 586 587 589 591 592 594 596 598 599 601 604 606 608 610 613 616 618 622 626 629 633 636 639 641 643 645 647 649 650 650 651 652 652 652 652 652 651 649 648 647 646 644 642 641 640 640 638 636 634 631 627 624 621 618 617 614 611
619 615 611 608 607 605 603 602 600 599 598 597 595 592 590 588 586 585 583 582 582 581 581 582 582 582 583 584 585 586 588 589 591 592 594 596 598 600 602 605 607 609 612 615 618 622 625 629 632 635 638 640 643 644 646 647 648 649 650 650 651 651 651 650 648 647 646 646 645 643 642 642 641 639 637 635 633 630 626 623 619 617 615 613 610
617 613 609 606 604 603 601 600 598 597 596 594 592 590 588 586 585 583 582 580 580 579 579 580 580 580 581 582 584 585 587 588 589 590 592 594 597 599 601 603 605 607 610 614 618 621 624 628 631 634 637 639 641 643 645 646 647 648 648 649 649 649 649 648 647 646 646 645 644 643 642 642 640 638 636 634 632 628 625 622 620 617 615 613 611
616 611 607 604 603 602 600 598 597 595 593 591 590 589 587 585 583 582 580 579 578 577 577 577 577 578 579 580 582 584 586 586 586 588 590 593 595 597 600 602 604 606 609 612 616 620 623 627 630 633 636 638 640 642 644 645 646 647 647 648 649 649 648 647 647 646 646 645 644 643 643 642 640 638 636 634 631 628 624 622 620 618 615 613 612
616 610 606 603 602 601 599 597 595 593 591 589 588 587 586 584 583 581 579 578 577 576 576 576 576 576 577 578 579 581 583 583 585 587 590 592 594 597 599 601 603 606 609 611 614 619 623 627 630 632 634 636 638 641 642 644 644 645 646 647 648 648 647 647 646 646 646 645 644 643 643 641 640 638 636 633 630 627 625 623 620 618 616 614 612
618 611 607 604 602 600 598 596 594 592 590 588 586 585 584 583 582 580 579 577 576 575 575 575 575 575 575 577 578 580 581 583 584 587 589 591 594 596 599 601 603 605 608 611 614 618 622 626 629 631 632 634 637 639 641 642 643 644 645 646 647 647 647 646 646 646 645 644 644 644 643 641 640 639 637 634 631 627 624 623 620 618 617 615 612
620 613 608 605 602 599 597 594 592 590 588 586 585 584 583 582 580 579 578 577 576 575 574 574 574 574 574 575 577 578 580 582 584 585 587 590 592 595 598 601 603 605 608 610 614 618 621 624 627 629 631 633 636 638 639 640 641 642 644 645 646 646 646 646 646 646 645 644 644 644 643 641 641 640 638 635 631 628 625 623 620 619 617 615 613
622 616 611 606 602 599 596 593 591 589 587 585 583 583 582 582 581 579 578 577 576 575 575 574 574 573 574 574 576 577 579 580 582 584 587 589 591 594 597 600 603 605 607 610 613 617 620 622 624 627 629 631 634 636 638 639 640 642 643 644 645 645 645 646 646 646 645 645 645 644 643 642 641 640 638 635 632 629 626 624 622 620 618 615 613
623 618 614 609 604 599 595 592 590 588 586 585 583 582 581 581 580 579 578 576 576 575 575 574 574 574 574 574 575 577 578 580 582 584 586 588 591 594 597 600 603 605 607 610 612 616 619 621 623 625 628 630 633 635 637 638 640 641 642 644 644 644 645 646 646 645 645 645 645 644 643 642 641 640 638 635 633 630 628 626 623 621 619 617 615
622 617 613 610 606 601 597 593 590 588 587 585 583 582 581 579 579 579 578 577 576 575 574 574 573 573 573 573 574 576 578 580 581 583 586 588 591 593 596 599 602 605 607 609 611 614 617 619 621 624 627 629 631 634 635 637 639 640 641 643 643 644 645 646 646 645 646 646 646 645 643 642 641 640 639 636 633 631 629 627 625 623 622 620 617
623 618 613 610 607 603 598 594 590 588 586 584 582 581 580 579 579 578 577 577 576 575 574 574 573 573 573 573 574 575 577 579 581 583 586 588 590 593 595 597 600 604 607 609 611 613 616 618 620 623 625 628 630 632 634 636 638 639 641 642 642 643 645 645 645 646 646 646 646 645 644 643 642 641 639 637 635 633 631 629 627 625 623 621 619
625 620 616 612 608 604 599 595 591 588 586 584 582 581 580 579 579 578 577 577 576 575 575 574 573 573 572 572 573 575 577 579 581 583 586 588 590 592 595 597 600 603 607 610 612 614 616 618 620 622 625 627 629 632 633 635 637 639 640 642 642 644 645 645 645 646 647 646 646 645 644 643 642 641 640 638 636 634 632 630 628 626 625 622 620
626 622 619 614 610 606 601 596 592 589 586 583 581 580 579 579 578 578 577 577 576 576 576 575 575 574 574 573 574 575 578 580 582 584 586 588 590 592 595 597 600 604 607 610 612 614 616 618 620 622 624 626 629 631 633 635 637 638 640 641 643 644 645 645 646 647 647 647 646 645 644 643 643 642 640 639 636 634 633 631 630 628 626 624 622
625 621 618 614 611 606 602 598 593 589 586 584 581 580 579 578 578 578 577 577 577 577 577 577 576 576 575 575 575 576 579 581 583 585 587 588 590 592 595 598 601 604 607 610 612 614 616 618 620 622 624 626 628 630 632 634 636 638 639 641 642 643 644 645 646 647 647 647 646 646 645 644 643 642 641 639 637 636 634 633 631 630 628 626 624
624 620 616 613 609 606 602 599 595 591 587 584 582 580 579 578 578 578 578 578 578 578 578 578 578 577 577 577 577 578 580 582 583 586 587 589 591 593 595 598 601 604 607 609 612 614 616 618 620 622 624 626 628 630 632 634 636 638 639 641 642 643 644 645 646 647 647 647 647 646 645 644 643 643 642 640 638 637 635 634 633 632 630 628 626
624 620 616 612 609 606 602 599 595 592 588 585 582 580 579 579 579 579 578 578 579 579 579 579 579 578 578 578 579 580 581 583 584 586 588 590 592 595 597 599 601 604 607 609 611 613 615 618 620 622 624 626 628 630 632 634 636 638 639 641 642 643 644 645 646 647 647 647 647 646 646 645 644 643 642 641 640 638 637 635 634 633 632 630 628
624 620 616 613 609 606 602 599 595 592 588 585 582 580 579 579 579 579 579 579 579 579 580 580 580 579 579 579 580 581 582 584 586 587 589 591 594 596 598 599 601 603 606 608 610 613 615 617 619 621 624 625 627 630 632 634 636 637 639 641 642 643 644 645 646 647 647 647 647 647 646 646 645 644 643 642 641 639 638 636 635 634 633 631 629
624 620 617 613 609 606 602 599 595 591 588 585 582 580 579 579 579 579 579 579 579 579 580 580 580 580 580 580 581 582 583 585 587 588 590 593 595 597 598 600 602 604 606 608 610 613 615 617 619 621 624 626 628 630 632 634 635 637 639 640 642 643 644 645 646 647 647 647 647 647 647 646 646 645 644 643 642 640 639 638 636 635 634 633 631
622 619 615 611 608 604 601 598 594 591 587 584 581 579 578 578 578 578 578 579 579 580 580 580 581 581 581 582 582 583 585 586 588 590 591 593 595 597 599 601 603 605 607 609 611 613 615 617 619 622 624 626 629 631 633 635 636 638 639 641 642 643 644 645 646 646 647 647 647 647 647 647 647 646 645 644 643 642 640 638 637 636 635 634 632
621 617 613 610 606 602 599 596 593 589 586 583 580 578 577 577 578 578 578 578 579 580 580 581 582 582 583 583 583 584 586 587 589 591 592 594 596 598 600 602 604 606 608 610 612 614 615 617 619 621 624 627 629 632 634 636 637 639 640 641 642 643 644 645 646 647 647 647 647 647 647 647 647 647 646 645 644 642 641 640 638 637 636 635 634
619 616 612 608 605 601 597 594 591 587 585 582 579 577 577 577 577 578 578 578 579 580 580 581 582 583 584 584 585 585 586 588 590 591 593 594 596 598 600 603 605 607 609 611 612 614 616 618 620 622 624 627 630 632 634 636 638 639 641 642 643 644 645 646 646 647 647 648 648 648 648 648 648 647 646 646 645 644 643 641 640 639 637 636 635
617 614 610 607 604 600 596 593 589 586 584 581 578 576 576 576 577 577 578 578 579 580 580 581 582 583 584 585 586 586 587 589 590 592 594 595 597 599 601 604 606 608 610 612 613 615 616 618 620 623 625 627 630 632 634 636 638 639 641 642 643 644 645 646 647 647 648 648 648 649 648 648 648 647 647 646 646 645 644 643 641 640 639 637 636
616 612 609 606 603 599 595 592 588 585 582 579 577 576 576 576 577 578 578 578 579 580 581 581 582 583 584 586 587 588 589 590 591 593 595 597 598 600 602 605 607 609 611 612 614 616 617 619 621 624 626 628 631 633 634 636 638 639 640 642 643 644 645 646 647 648 648 648 649 649 649 648 648 648 647 647 646 645 645 644 642 641 640 638 637
615 611 608 605 602 598 595 591 588 584 581 578 576 576 576 577 578 578 578 579 579 580 581 582 582 583 585 586 588 589 590 591 593 595 596 598 600 602 604 606 609 610 611 613 615 616 618 620 623 625 627 629 631 633 635 636 638 639 641 642 643 644 646 646 647 648 649 649 649 649 649 649 648 648 647 647 646 646 645 644 643 642 640 639 638
614 611 608 605 601 598 595 592 588 584 581 579 577 577 577 578 578 579 579 580 580 581 582 583 584 585 586 587 589 590 591 593 594 596 598 599 601 603 605 608 610 611 613 614 616 618 620 622 624 626 628 630 632 634 635 637 638 639 641 642 643 645 646 647 648 648 649 649 649 649 649 649 648 648 648 647 646 646 645 644 643 642 641 639 638
614 611 608 605 601 598 596 593 589 586 583 582 580 580 580 579 579 580 580 581 582 583 584 585 586 587 587 589 590 591 593 594 596 597 599 601 603 604 606 609 611 613 614 616 617 619 621 623 625 626 628 631 632 634 636 637 638 640 641 643 644 645 646 647 648 649 649 649 650 649 649 649 648 648 648 647 646 646 645 644 643 642 641 640 639